Find Starlink 11619

NORAD ID: 63272 Int'l Des: 2025-053 Owner: SPXS Country: US Constellation: starlink operational
別名: STARLINK-11619 [DTC] celestrak
LEOCIRCULAR

現在のビュー

3D地球を読み込み中...

About Starlink 11619

Starlink 11619 (NORAD 63272) is a starlink constellation satellite (v2 mini d2c) launched Mar 15, 2025 by SPXS of US. It operates in LEO, CIRCULAR orbit with a mass of 960.00 kg.

次回通過

Passes for default location (London). Set your location on the main map for personalized predictions.

高度履歴

Loading altitude history...

軌道要素

1 63272U 25053H 26235.87901524 .00194668 00000-0 14810-2 0 9999
2 63272 42.9989 184.5017 0001325 263.4270 96.6447 15.70909151 83964
Epoch: Aug 23, 2026 • Age: 13 hours

現在のステータス

高度 357.7 km
遠地点 / 近地点 N/A
速度 7.70 km/s
衛星直下点 34.35°N, 165.62°W
打ち上げ日 Mar 15, 2025
運用期間 1.4 years
タイプ internet

技術仕様

分類 Payload
質量 960.00 kg
乾燥質量 910.00 kg
総質量 960.00 kg
長さ 0.30 m
直径 4.10 m
スパン 29.00 m
形状 Box + pan
製造者 SPXS
バスタイプ Starlink V2MD
フェーズステータス In Orbit
所有者/国 SPXS/US

Most Searched